| time (UTC) | temp F | wind direction | speed MPH | gust MPH | rain 1hr in | rain 24hr in | rain mn in | humidity % | barometer mb |
| 20260504081520 | 43 | 360 | 1.0 | 0.0 | 0.00 | 0.00 | 0.00 | 64 | 1001.4 |
| 20260504050019 | 51 | 360 | 1.0 | 0.0 | 0.00 | 0.00 | 0.00 | 52 | 1000.6 |
| 20260504044618 | 52 | 360 | 0.0 | 0.0 | 0.00 | 0.00 | 0.00 | 49 | 1000.5 |
| 20260504043017 | 53 | 360 | 0.0 | 0.0 | 0.00 | 0.00 | 0.00 | 48 | 1000.5 |
| 20260504041516 | 55 | 360 | 2.0 | 0.0 | 0.00 | 0.00 | 0.00 | 46 | 1000.3 |
| 20260504040017 | 57 | 360 | 0.0 | 0.0 | 0.00 | 0.00 | 0.00 | 42 | 1000.3 |
| 20260504034617 | 61 | 360 | 0.0 | 0.0 | 0.00 | 0.00 | 0.00 | 36 | 1000.2 |
| 20260504033017 | 62 | 360 | 0.0 | 0.0 | 0.00 | 0.00 | 0.00 | 35 | 1000.1 |
| 20260504031517 | 64 | 255 | 0.0 | 0.0 | 0.00 | 0.00 | 0.00 | 32 | 999.9 |
| 20260504030016 | 66 | 255 | 0.0 | 0.0 | 0.00 | 0.00 | 0.00 | 30 | 999.9 |
| 20260504024616 | 68 | 254 | 0.0 | 0.0 | 0.00 | 0.00 | 0.00 | 28 | 999.7 |
| 20260504023017 | 70 | 360 | 0.0 | 0.0 | 0.00 | 0.00 | 0.00 | 25 | 999.4 |
| 20260504021519 | 71 | 202 | 2.0 | 0.0 | 0.00 | 0.00 | 0.00 | 25 | 999.4 |
| 20260504020017 | 72 | 208 | 0.0 | 0.0 | 0.00 | 0.00 | 0.00 | 24 | 999.5 |
| 20260504014616 | 73 | 166 | 0.0 | 0.0 | 0.00 | 0.00 | 0.00 | 21 | 999.5 |
| 20260504013021 | 74 | 198 | 0.0 | 0.0 | 0.00 | 0.00 | 0.00 | 21 | 999.5 |
| 20260504011513 | 75 | 212 | 2.0 | 0.0 | 0.00 | 0.00 | 0.00 | 22 | 999.6 |
| 20260504010010 | 75 | 243 | 0.0 | 0.0 | 0.00 | 0.00 | 0.00 | 20 | 999.9 |
| 20260504004610 | 75 | 242 | 3.0 | 0.0 | 0.00 | 0.00 | 0.00 | 19 | 999.9 |
| 20260504003015 | 75 | 20 | 0.0 | 0.0 | 0.00 | 0.00 | 0.00 | 21 | 1000.0 |
| 20260504001509 | 75 | 5 | 0.0 | 0.0 | 0.00 | 0.00 | 0.00 | 19 | 1000.1 |
| 20260504000007 | 75 | 5 | 5.0 | 0.0 | 0.00 | 0.00 | 0.00 | 19 | 1000.4 |
| 20260503234609 | 75 | 349 | 6.0 | 0.0 | 0.00 | 0.00 | 0.00 | 21 | 1000.3 |
| 20260503233009 | 75 | 22 | 10.0 | 0.0 | 0.00 | 0.00 | 0.00 | 20 | 1000.4 |
| 20260503231508 | 75 | 199 | 0.0 | 0.0 | 0.00 | 0.00 | 0.00 | 20 | 1000.4 |
| 20260503230007 | 75 | 324 | 7.0 | 0.0 | 0.00 | 0.00 | 0.00 | 19 | 1000.7 |
| 20260503224605 | 75 | 298 | 0.0 | 0.0 | 0.00 | 0.00 | 0.00 | 20 | 1000.7 |
| 20260503223001 | 75 | 25 | 3.0 | 0.0 | 0.00 | 0.00 | 0.00 | 21 | 1001.1 |
| 20260503221602 | 74 | 350 | 1.0 | 0.0 | 0.00 | 0.00 | 0.00 | 24 | 1001.1 |
| 20260503220057 | 74 | 5 | 5.0 | 0.0 | 0.00 | 0.00 | 0.00 | 26 | 1001.3 |
| 20260503214555 | 74 | 238 | 8.0 | 0.0 | 0.00 | 0.00 | 0.00 | 23 | 1001.9 |
| 20260503213054 | 73 | 5 | 10.0 | 0.0 | 0.00 | 0.00 | 0.00 | 23 | 1002.1 |
| 20260503211552 | 74 | 23 | 4.0 | 0.0 | 0.00 | 0.00 | 0.00 | 26 | 1002.3 |
| 20260503210050 | 73 | 315 | 3.0 | 0.0 | 0.00 | 0.00 | 0.00 | 25 | 1002.5 |
| 20260503204547 | 74 | 194 | 2.0 | 0.0 | 0.00 | 0.00 | 0.00 | 25 | 1002.9 |
| 20260503203046 | 73 | 305 | 3.0 | 0.0 | 0.00 | 0.00 | 0.00 | 24 | 1003.0 |
| 20260503201544 | 73 | 360 | 10.0 | 0.0 | 0.00 | 0.00 | 0.00 | 27 | 1003.2 |
| 20260503200041 | 71 | 280 | 9.0 | 0.0 | 0.00 | 0.00 | 0.00 | 29 | 1003.3 |
| 20260503194539 | 72 | 20 | 1.0 | 0.0 | 0.00 | 0.00 | 0.00 | 31 | 1003.8 |
| 20260503193039 | 71 | 355 | 7.0 | 0.0 | 0.00 | 0.00 | 0.00 | 29 | 1004.0 |
| 20260503191536 | 70 | 343 | 2.0 | 0.0 | 0.00 | 0.00 | 0.00 | 29 | 1004.4 |
| 20260503190033 | 69 | 349 | 8.0 | 0.0 | 0.00 | 0.00 | 0.00 | 30 | 1004.8 |
| 20260503184539 | 69 | 36 | 5.0 | 0.0 | 0.00 | 0.00 | 0.00 | 34 | 1005.0 |
| 20260503183025 | 69 | 41 | 0.0 | 0.0 | 0.00 | 0.00 | 0.00 | 33 | 1005.1 |
| 20260503181523 | 68 | 304 | 0.0 | 0.0 | 0.00 | 0.00 | 0.00 | 32 | 1005.5 |
| 20260503180020 | 67 | 5 | 0.0 | 0.0 | 0.00 | 0.00 | 0.00 | 37 | 1005.9 |
| 20260503174520 | 66 | 337 | 0.0 | 0.0 | 0.00 | 0.00 | 0.00 | 38 | 1006.3 |
| 20260503173019 | 65 | 360 | 0.0 | 0.0 | 0.00 | 0.00 | 0.00 | 42 | 1006.4 |
| 20260503171515 | 64 | 30 | 0.0 | 0.0 | 0.00 | 0.00 | 0.00 | 46 | 1006.6 |